Wetbulb
72.12 73.33 73.41 72.19 62.16 61.24 56.48 59.53 62.67 61.81 61.79 65.71 66.92 64.81 62.31 63.86 62.09 54.36 71.44 73.21 73.16 73.71 75.06 76.15 77.50 77.77 77.09 77.03 77.16 77.00 76.92 76.82 76.99 76.82 76.88 76.47 76.36 76.03 76.36 76.32 76.39 76.34 76.18 75.98 75.95 75.62 75.87 76.28 76.58
71.82 73.49 73.57 68.19 59.58 55.33 55.27 60.96 60.02 61.96 64.72 66.80 65.97 65.11 63.48 61.52 66.89 68.21 69.59 73.03 73.22 73.65 73.91 75.15 77.65 77.91 76.73 77.04 76.96 77.43 77.07 77.04 76.93 76.62 76.65 76.85 76.89 76.53 76.89 76.42 76.48 76.31 76.09 76.12 75.95 75.81 75.93 75.86 76.33
73.60 75.32 67.39 63.21 59.33 54.86 53.96 60.77 61.37 63.78 67.41 67.00 65.24 66.33 64.74 63.53 68.33 69.26 71.61 72.83 73.45 73.65 74.73 75.17 77.53 77.29 76.98 77.37 77.58 76.75 76.79 76.81 76.11 76.62 76.61 76.90 76.75 77.11 76.51 76.51 76.42 76.61 76.04 76.09 75.84 75.73 75.79 75.84 75.67
72.03 71.02 68.75 60.66 57.91 60.28 60.93 61.87 63.38 65.59 66.22 66.35 65.59 63.35 66.98 69.60 69.63 71.27 73.28 73.83 73.93 74.26 75.42 77.10 76.62 76.69 77.01 76.95 77.56 77.05 76.47 76.23 76.16 76.08 76.39 76.91 76.85 76.56 76.20 75.98 75.90 75.73 75.45 75.31 74.81 75.76 75.20 75.45 75.52
71.68 68.22 61.11 59.13 58.80 60.98 62.72 64.74 66.92 65.10 65.35 64.97 65.39 62.84 64.15 68.76 71.91 72.86 73.03 73.78 71.95 72.57 74.25 75.47 77.73 77.72 76.51 76.90 76.95 76.92 77.07 76.53 76.46 76.50 76.42 76.14 75.97 75.67 75.57 75.21 74.84 74.75 74.97 74.84 75.54 74.96 75.82 75.26 75.52
66.40 66.11 58.72 56.44 58.77 61.55 63.86 66.75 66.14 65.81 65.58 65.23 64.78 63.66 63.63 68.78 70.55 71.70 73.49 72.96 72.80 72.52 74.19 74.94 77.21 77.73 76.71 76.79 77.01 76.21 76.02 76.22 76.09 75.84 75.68 75.45 75.15 74.96 75.09 75.15 75.26 75.34 75.76 75.67 74.62 73.54 74.71 73.77 75.31
65.18 62.08 58.87 59.12 59.51 59.99 63.84 67.23 65.15 64.59 65.01 64.35 66.82 61.38 63.79 66.92 68.94 69.81 72.93 72.62 73.30 72.99 73.20 73.89 74.34 75.61 76.05 76.42 76.42 76.68 76.33 75.65 76.15 75.76 75.81 75.62 75.32 75.70 75.79 76.50 76.39 76.04 76.45 75.70 73.41 73.82 73.93 73.79 74.84
66.95 64.52 59.42 60.22 59.50 60.05 64.78 64.79 67.31 65.08 64.64 68.73 68.22 61.26 60.97 67.04 69.03 69.67 70.31 70.61 70.40 71.63 72.54 72.44 72.59 72.62 72.89 73.12 76.26 76.45 77.06 76.47 75.54 75.17 75.14 75.31 76.07 76.26 76.26 76.47 76.53 77.00 77.64 77.16 75.95 74.90 74.82 74.43 75.19
69.30 60.60 56.96 57.91 60.63 62.53 66.43 63.98 66.42 69.48 66.31 67.03 68.08 65.94 67.16 68.49 68.69 67.53 67.25 67.92 69.11 71.53 72.77 72.07 72.29 72.08 71.58 71.76 74.07 76.78 76.61 75.98 75.53 75.40 75.81 76.57 73.89 73.94 74.99 75.32 77.79 77.76 77.79 77.01 76.20 75.50 75.32 75.91 75.92
63.36 59.05 57.93 62.68 64.21 63.26 65.90 64.84 66.23 66.42 65.93 64.41 65.23 67.64 68.37 68.11 66.77 66.04 64.79 64.37 65.94 70.59 70.76 71.30 71.78 71.49 71.11 72.49 72.85 73.24 74.75 74.26 72.15 68.17 72.94 74.26 73.53 72.94 74.54 77.30 78.27 77.00 77.03 76.22 76.80 76.01 75.32 75.42 73.02
63.02 58.63 62.80 62.17 65.50 66.36 64.81 65.58 67.52 66.15 63.96 64.22 63.54 65.21 66.85 66.46 65.50 66.16 65.74 65.22 65.56 69.83 69.26 69.09 69.88 71.07 70.83 72.75 72.77 73.93 74.36 74.12 68.77 70.31 71.91 73.32 74.14 73.07 74.27 72.40 69.18 68.05 71.51 72.71 75.73 75.54 73.67 72.76 72.06
59.04 63.13 63.01 64.32 66.65 66.14 65.02 66.58 65.10 65.81 66.04 67.16 67.00 66.82 66.50 65.14 65.55 66.03 65.68 65.61 66.01 67.25 67.97 70.11 70.98 70.73 71.68 73.43 73.74 73.93 73.17 74.16 72.27 70.77 72.86 72.78 69.09 72.26 71.90 69.79 68.03 68.11 71.66 69.23 70.61 73.61 73.96 73.21 73.67
61.33 61.77 63.13 67.07 66.97 66.42 67.20 64.81 66.00 65.89 68.44 68.32 67.91 67.20 65.81 64.99 65.50 66.18 66.44 66.28 66.21 66.32 69.38 70.51 72.10 71.26 72.12 73.09 71.78 73.36 73.29 73.21 70.03 68.52 72.15 72.62 71.88 72.56 71.05 68.80 68.31 71.83 72.92 70.21 71.23 72.13 73.84 71.69 73.44
63.08 61.70 61.96 65.66 63.86 63.87 64.12 63.94 64.67 66.82 68.44 67.21 66.60 65.63 65.85 65.11 64.85 65.62 65.85 65.00 66.26 68.44 70.51 71.79 73.05 73.75 73.18 73.81 73.78 72.03 71.55 74.62 70.14 67.53 70.48 73.62 73.78 74.16 70.55 70.45 71.23 73.12 72.76 72.96 72.77 72.16 68.11 69.53 71.64
62.63 58.24 61.84 63.40 64.26 61.68 64.46 59.98 61.95 65.73 68.19 66.17 65.32 65.53 65.96 65.60 64.96 65.05 65.37 65.28 66.07 68.88 70.52 71.89 72.44 74.70 72.77 72.93 72.63 73.23 74.34 75.36 74.19 74.64 74.48 75.75 75.16 76.04 75.71 72.25 72.76 72.69 73.13 72.27 73.16 73.05 72.00 71.41 72.32
56.72 58.10 54.97 61.28 63.88 63.16 62.79 56.79 61.84 65.59 65.02 65.52 65.94 65.49 65.84 65.98 64.55 65.46 66.28 65.50 66.70 70.07 70.96 71.79 73.72 73.94 72.75 72.40 73.26 74.18 72.72 73.20 73.73 74.41 74.69 75.18 74.82 74.62 75.56 71.13 71.08 71.85 74.23 73.12 69.95 72.79 71.24 71.19 70.39
54.08 51.67 55.84 57.65 62.83 61.76 59.17 57.22 61.25 63.16 64.52 65.44 66.31 66.42 65.89 65.23 63.97 65.77 67.13 66.64 66.59 71.18 71.41 70.89 72.42 72.68 73.04 73.14 74.70 74.11 74.03 74.65 73.93 74.74 74.29 74.94 75.52 76.91 73.63 72.20 73.58 69.25 70.08 71.27 71.77 72.23 69.86 70.24 69.60
49.58 55.47 56.47 54.10 59.13 60.71 57.16 57.43 60.58 62.38 63.88 64.30 66.03 66.87 66.02 65.18 64.78 65.91 66.42 66.98 69.80 71.23 71.19 72.23 73.47 71.88 73.55 73.49 73.61 74.00 73.11 73.85 74.10 74.39 74.35 75.29 74.24 75.93 73.91 74.05 72.76 70.51 69.06 69.81 70.36 70.19 71.69 72.00 71.22
55.39 53.79 55.72 57.17 60.77 57.87 57.43 56.44 58.58 61.41 61.59 62.69 65.52 65.88 66.28 65.32 66.70 66.83 66.31 67.33 71.11 71.20 70.32 72.60 73.55 73.54 72.35 72.06 72.44 70.50 69.76 73.46 75.54 74.29 73.95 73.79 73.67 76.26 76.44 74.12 72.79 71.73 70.72 70.50 70.85 70.95 67.88 67.98 69.64
55.00 53.80 55.01 57.28 59.55 57.80 56.91 55.82 58.45 60.05 61.48 64.08 63.62 65.56 66.73 66.07 66.14 66.92 65.62 66.82 69.62 70.50 70.16 73.02 73.33 74.26 72.33 73.19 72.55 71.60 71.59 73.70 73.89 73.64 73.37 73.81 75.14 75.62 76.09 74.36 74.61 73.28 73.45 68.54 67.81 67.63 67.40 65.12 66.65
52.99 51.53 55.59 55.87 58.42 58.52 57.17 54.95 57.20 60.43 63.26 65.40 64.94 66.38 67.65 66.75 65.71 66.73 64.99 65.41 68.29 70.18 70.27 72.66 73.41 74.14 73.70 73.46 73.39 74.45 74.98 73.82 72.47 72.75 72.16 73.65 75.48 75.98 75.58 76.14 75.61 75.03 73.10 69.79 68.62 68.04 64.29 62.04 62.58
48.25 55.36 57.80 56.30 53.84 49.46 57.69 48.25 55.72 58.62 59.03 63.73 62.81 63.03 66.86 67.38 66.94 67.10 65.57 64.95 67.27 70.32 71.68 72.89 73.46 72.84 72.86 74.46 72.31 72.63 72.82 70.95 71.34 71.60 72.33 73.15 74.89 77.00 77.18 76.08 75.24 74.75 72.82 69.01 68.34 68.59 68.74 64.25 60.56
51.69 55.37 54.73 56.54 52.34 51.11 54.22 50.56 54.08 58.38 57.07 60.26 63.60 64.82 67.18 67.72 67.30 67.07 67.22 66.07 67.27 70.70 71.71 73.24 74.04 73.29 71.19 73.96 74.81 73.49 74.23 71.13 73.12 73.07 72.78 72.98 73.94 75.21 77.03 76.44 76.16 74.97 73.67 72.91 70.88 68.64 66.08 64.58 63.64
56.21 53.62 53.07 53.51 51.71 43.50 50.27 50.11 52.00 55.69 58.52 61.11 63.88 66.74 67.89 67.77 67.99 68.01 68.87 68.44 67.56 70.04 71.67 73.14 74.09 73.79 72.67 73.64 74.39 74.16 71.98 73.14 72.40 72.97 72.99 73.19 73.14 74.26 75.46 76.57 76.29 76.06 74.94 73.12 71.61 69.98 67.04 62.67 63.48
52.24 47.95 42.58 42.17 41.97 41.65 49.32 46.54 51.89 60.27 62.20 61.87 60.72 66.71 68.08 68.62 68.27 68.22 68.05 68.85 68.05 68.09 70.04 72.59 72.94 73.74 73.17 73.78 74.36 73.99 72.60 74.36 73.56 72.03 72.90 72.19 72.06 73.05 75.46 75.03 76.19 75.84 76.10 74.66 74.04 71.74 69.88 68.69 63.91
48.35 47.42 43.18 37.95 39.33 43.37 49.49 44.38 50.88 59.86 61.68 62.81 63.13 65.58 68.33 68.38 68.72 68.46 68.91 69.44 69.33 68.10 68.41 71.65 71.75 73.64 73.24 73.85 73.61 74.39 75.10 74.81 74.38 73.84 72.15 72.65 73.07 73.23 75.86 76.54 76.47 76.99 76.71 75.79 74.98 72.49 71.49 70.16 67.92
47.44 46.30 50.15 44.27 45.84 42.44 45.96 50.01 55.50 58.33 58.92 61.37 63.68 63.74 67.07 68.74 68.72 68.79 69.64 69.70 69.77 68.83 68.28 70.32 71.40 72.65 73.60 74.18 73.29 74.08 74.74 74.14 73.88 74.35 73.34 74.37 75.05 75.21 76.33 76.89 75.93 76.92 76.69 76.08 75.77 75.04 72.09 70.72 71.06
46.56 50.13 45.44 46.13 37.68 37.03 45.07 47.25 48.73 53.22 53.35 59.17 60.81 63.66 66.10 67.11 67.92 69.61 69.67 69.81 70.29 70.18 68.79 69.95 72.03 72.00 73.70 73.99 73.81 74.11 73.58 75.00 74.89 75.79 73.40 72.37 75.01 75.68 76.09 76.01 76.31 76.06 76.49 76.11 75.73 75.43 74.56 72.12 72.22
45.65 45.13 46.57 47.18 43.79 39.09 38.63 43.11 53.06 54.74 54.94 56.36 59.13 61.99 62.67 62.47 62.80 67.14 70.15 70.59 70.47 70.89 69.41 69.78 72.20 72.25 73.53 73.27 74.24 73.87 73.70 73.61 74.54 74.55 75.83 75.21 73.45 75.71 75.98 75.46 75.24 75.59 76.06 76.19 75.65 74.91 75.69 73.69 73.21
48.08 45.91 46.60 44.26 41.76 43.85 43.38 45.45 55.28 57.72 58.17 57.52 58.35 60.59 60.06 61.42 64.32 67.49 69.56 70.60 70.36 70.21 70.74 69.53 72.53 72.94 73.62 73.81 73.91 74.01 74.63 73.63 73.07 73.77 74.38 76.72 73.55 76.13 75.31 75.12 74.91 76.04 75.44 75.98 75.94 74.71 75.21 74.73 73.95
MSLP
1009.16 1009.30 1009.47 1009.63 1010.27 1008.98 1006.87 1005.32 1003.71 1003.81 1003.94 1004.16 1004.51 1005.67 1007.33 1007.58 1008.09 1010.86 1011.32 1011.99 1012.63 1013.35 1013.74 1013.99 1014.16 1014.27 1014.51 1014.61 1014.68 1014.76 1014.86 1014.94 1015.01 1015.15 1015.26 1015.43 1015.55 1015.65 1015.60 1015.64 1015.65 1015.79 1016.03 1016.24 1016.37 1016.47 1016.70 1017.00 1017.24
1008.70 1009.10 1009.34 1009.30 1008.13 1007.72 1005.83 1004.23 1003.81 1003.81 1004.16 1004.67 1005.54 1006.55 1007.22 1008.67 1008.78 1010.36 1011.50 1012.15 1012.43 1013.20 1013.76 1014.07 1014.30 1014.46 1014.67 1014.74 1014.83 1014.93 1015.05 1015.20 1015.32 1015.50 1015.60 1015.69 1015.71 1015.81 1015.65 1015.69 1015.78 1015.96 1016.14 1016.33 1016.49 1016.61 1016.78 1017.17 1017.40
1008.32 1008.23 1008.54 1008.97 1008.03 1006.16 1004.83 1004.08 1003.75 1003.76 1004.05 1004.61 1005.73 1006.55 1007.83 1009.19 1009.57 1010.44 1011.45 1011.90 1012.42 1013.35 1013.80 1014.15 1014.42 1014.63 1014.77 1014.89 1015.07 1015.21 1015.37 1015.45 1015.54 1015.64 1015.72 1015.81 1015.84 1015.72 1015.74 1015.77 1015.81 1016.00 1016.23 1016.41 1016.56 1016.68 1016.89 1017.25 1017.47
1008.85 1008.78 1009.12 1008.81 1006.89 1004.82 1003.78 1003.71 1003.75 1004.33 1005.00 1005.50 1006.04 1007.68 1008.68 1008.99 1009.78 1010.66 1011.35 1012.12 1012.76 1013.48 1013.83 1014.27 1014.59 1014.76 1015.04 1015.21 1015.45 1015.64 1015.72 1015.72 1015.77 1015.79 1015.82 1015.85 1015.97 1016.02 1016.05 1016.13 1016.17 1016.37 1016.53 1016.56 1016.63 1016.71 1017.02 1017.38 1017.43
1008.93 1008.71 1008.91 1007.94 1006.50 1004.24 1003.61 1003.57 1003.92 1004.43 1005.42 1006.29 1006.61 1008.28 1009.01 1009.45 1010.08 1010.61 1011.40 1012.18 1012.92 1013.79 1014.05 1014.44 1014.72 1015.03 1015.16 1015.31 1015.56 1015.73 1015.87 1016.05 1016.19 1016.21 1016.17 1016.20 1016.29 1016.39 1016.51 1016.55 1016.55 1016.64 1016.71 1016.79 1016.76 1016.85 1017.09 1017.55 1017.55
1008.86 1009.23 1008.87 1008.03 1006.37 1004.28 1003.72 1003.79 1004.03 1004.97 1005.94 1006.89 1007.47 1008.58 1009.48 1009.78 1010.31 1010.55 1011.24 1012.17 1012.83 1013.69 1014.23 1014.54 1015.00 1015.14 1015.26 1015.53 1015.74 1015.94 1015.92 1016.17 1016.32 1016.31 1016.35 1016.38 1016.42 1016.46 1016.56 1016.57 1016.63 1016.74 1016.80 1016.97 1017.10 1017.17 1017.20 1017.56 1017.57
1008.68 1009.43 1009.03 1007.65 1005.49 1004.62 1004.21 1003.63 1004.29 1005.15 1006.07 1006.94 1007.64 1008.79 1009.75 1010.01 1009.94 1010.32 1011.40 1012.29 1013.05 1013.56 1014.25 1014.80 1015.19 1015.22 1015.39 1015.65 1015.87 1015.85 1015.95 1016.32 1016.35 1016.40 1016.60 1016.66 1016.73 1016.72 1016.75 1016.76 1016.75 1016.77 1017.05 1017.29 1017.43 1017.43 1017.57 1017.62 1017.72
1008.76 1009.50 1008.61 1008.17 1006.42 1005.42 1004.56 1004.39 1004.60 1004.89 1005.67 1006.68 1007.13 1008.55 1009.29 1009.52 1009.77 1010.56 1011.53 1012.31 1012.76 1013.57 1014.07 1014.80 1015.18 1015.38 1015.50 1015.75 1015.79 1015.82 1015.99 1016.11 1016.37 1016.54 1016.88 1016.97 1016.88 1016.58 1016.42 1016.39 1016.48 1016.91 1017.22 1017.29 1017.53 1017.53 1017.65 1017.71 1017.87
1007.61 1008.88 1009.39 1008.91 1007.67 1006.18 1004.97 1004.84 1004.93 1004.73 1005.70 1006.32 1006.65 1007.72 1008.83 1009.44 1009.79 1010.88 1011.60 1012.34 1013.00 1013.59 1014.09 1014.58 1014.93 1015.23 1015.32 1015.54 1015.61 1015.70 1015.85 1015.98 1016.20 1016.51 1016.57 1016.83 1017.01 1016.83 1016.78 1016.69 1016.58 1016.84 1017.33 1017.47 1017.42 1017.51 1017.58 1017.66 1017.74
1006.28 1006.91 1008.03 1008.52 1008.17 1007.25 1005.30 1005.07 1005.18 1005.41 1006.07 1006.90 1007.54 1008.40 1009.02 1009.62 1010.28 1011.02 1011.67 1012.22 1012.82 1013.60 1014.00 1014.35 1014.55 1014.97 1015.03 1015.08 1015.42 1015.78 1015.82 1015.86 1015.95 1016.40 1017.00 1017.10 1017.20 1017.64 1017.60 1017.18 1016.98 1017.02 1017.42 1017.75 1017.69 1017.75 1017.95 1018.01 1018.10
1005.52 1005.72 1005.95 1007.39 1007.40 1007.08 1006.27 1005.71 1005.37 1005.49 1005.98 1006.46 1007.35 1008.31 1009.11 1009.82 1010.48 1011.13 1011.81 1012.26 1012.45 1013.11 1013.37 1013.97 1014.35 1014.55 1014.67 1014.92 1015.30 1015.78 1015.88 1015.91 1016.04 1016.41 1017.52 1017.45 1017.71 1017.61 1017.36 1017.77 1017.77 1017.58 1017.74 1018.02 1018.00 1018.28 1018.37 1018.36 1018.17
1004.50 1004.25 1004.36 1005.66 1005.92 1006.91 1007.14 1007.02 1006.27 1005.82 1005.99 1006.09 1007.11 1008.18 1008.91 1009.88 1010.54 1010.92 1011.61 1012.11 1012.27 1012.67 1013.04 1013.68 1014.09 1014.47 1014.73 1014.86 1015.11 1015.53 1015.98 1015.96 1016.08 1016.46 1017.48 1016.67 1017.21 1017.52 1018.13 1016.96 1017.19 1017.52 1017.57 1017.91 1018.03 1018.24 1018.43 1018.33 1018.04
1003.77 1003.53 1003.64 1004.01 1005.72 1007.19 1008.00 1007.90 1007.16 1006.67 1005.93 1006.44 1007.21 1008.31 1008.89 1009.67 1010.20 1010.67 1011.03 1011.73 1012.09 1012.54 1013.16 1013.67 1013.97 1014.56 1014.56 1014.85 1015.42 1015.31 1015.61 1015.67 1016.11 1016.51 1017.12 1017.08 1017.38 1018.40 1018.20 1017.61 1017.10 1017.07 1017.18 1017.72 1018.03 1018.04 1017.86 1018.00 1017.74
1001.78 1002.87 1003.74 1005.49 1007.53 1007.61 1008.53 1009.12 1009.03 1007.71 1006.42 1006.62 1007.37 1008.32 1008.87 1009.34 1009.82 1010.34 1010.88 1011.59 1011.91 1012.58 1013.22 1013.59 1014.11 1014.33 1014.68 1014.94 1015.01 1015.41 1016.17 1016.04 1016.34 1016.10 1015.99 1016.92 1017.10 1017.33 1017.99 1017.98 1017.39 1017.20 1017.07 1016.97 1017.33 1018.02 1017.57 1017.73 1017.49
1002.44 1003.01 1004.76 1006.03 1008.27 1009.73 1009.94 1010.38 1010.16 1008.93 1006.92 1006.93 1007.64 1008.20 1008.64 1009.11 1009.50 1010.10 1010.60 1011.35 1011.77 1012.55 1013.04 1013.53 1014.12 1014.26 1014.59 1014.71 1014.71 1015.26 1016.24 1015.67 1015.78 1016.06 1015.96 1015.73 1016.15 1016.15 1016.30 1016.96 1017.03 1017.30 1017.25 1017.26 1017.71 1017.58 1016.87 1017.06 1017.33
1002.91 1003.60 1004.85 1007.12 1008.43 1010.64 1010.82 1010.89 1008.37 1009.06 1008.53 1006.74 1007.63 1008.15 1008.54 1008.91 1009.29 1009.89 1010.36 1011.05 1011.59 1012.47 1013.11 1013.48 1014.02 1014.43 1014.54 1014.71 1014.54 1014.72 1015.63 1015.68 1015.75 1015.75 1016.09 1016.33 1016.10 1016.17 1015.96 1016.20 1016.55 1016.78 1017.34 1017.44 1017.37 1017.42 1017.37 1017.15 1017.26
1002.65 1004.08 1005.48 1007.14 1008.07 1009.90 1010.79 1011.97 1008.91 1008.45 1007.98 1007.40 1007.39 1007.99 1008.21 1008.71 1009.19 1009.62 1010.19 1010.88 1011.53 1012.33 1012.95 1013.49 1013.92 1014.34 1014.60 1014.61 1014.19 1014.46 1015.21 1015.49 1015.54 1015.91 1015.96 1016.17 1016.12 1016.13 1016.29 1016.36 1016.73 1016.95 1017.03 1017.07 1017.17 1017.17 1017.14 1017.34 1017.08
1003.20 1004.55 1005.83 1007.23 1008.63 1009.57 1010.68 1011.34 1009.32 1008.23 1008.41 1008.54 1007.37 1007.72 1007.97 1008.25 1008.84 1009.35 1009.99 1010.72 1011.46 1012.19 1012.71 1013.37 1013.84 1014.32 1014.57 1014.81 1014.79 1014.62 1014.63 1015.42 1015.78 1016.04 1016.09 1016.25 1016.33 1016.28 1016.66 1016.85 1016.93 1016.97 1017.29 1017.40 1017.33 1017.29 1017.03 1017.18 1017.30
1002.68 1003.53 1005.03 1006.91 1008.47 1009.40 1010.05 1009.33 1008.27 1007.91 1008.20 1008.74 1008.15 1007.46 1007.66 1008.01 1008.31 1008.95 1009.63 1010.45 1011.38 1012.05 1012.74 1013.32 1013.59 1014.23 1014.68 1014.92 1015.19 1014.96 1015.07 1015.32 1015.70 1015.80 1015.95 1016.13 1016.27 1016.35 1016.37 1016.89 1017.12 1017.26 1017.37 1017.55 1017.61 1017.60 1017.69 1017.77 1017.63
1001.95 1002.51 1003.79 1006.18 1007.32 1007.91 1008.95 1007.84 1007.37 1007.84 1008.48 1009.23 1009.33 1007.61 1007.27 1007.58 1008.14 1008.63 1009.31 1010.17 1011.04 1011.80 1012.40 1013.23 1013.51 1014.04 1014.48 1014.73 1014.83 1014.78 1014.82 1015.32 1015.26 1015.37 1015.54 1015.68 1016.03 1016.14 1016.17 1016.71 1017.09 1017.09 1017.33 1017.49 1017.71 1017.89 1018.22 1018.33 1018.08
1001.40 1001.72 1002.70 1004.41 1006.51 1007.68 1008.81 1008.63 1007.55 1008.18 1008.70 1008.28 1007.55 1007.63 1006.69 1006.68 1007.54 1008.32 1008.89 1009.74 1010.74 1011.53 1012.15 1012.90 1013.48 1013.85 1014.15 1014.50 1014.78 1014.98 1015.10 1015.44 1015.70 1015.75 1015.75 1015.75 1015.85 1016.01 1016.11 1016.35 1016.69 1017.09 1017.28 1017.69 1017.96 1018.22 1018.38 1018.67 1018.53
1001.02 1000.57 1001.63 1003.58 1005.15 1006.35 1007.28 1007.23 1006.54 1006.94 1008.02 1008.23 1006.97 1006.87 1005.81 1005.97 1006.72 1007.81 1008.50 1009.24 1010.19 1011.13 1011.89 1012.76 1013.32 1013.82 1013.92 1014.41 1014.81 1015.07 1015.31 1015.73 1015.83 1015.82 1015.95 1016.04 1015.82 1015.90 1016.06 1016.33 1016.55 1017.07 1017.39 1017.82 1018.08 1018.30 1018.36 1018.49 1018.80
1000.45 1000.13 1001.02 1002.81 1003.42 1004.51 1005.83 1006.62 1004.14 1004.79 1006.85 1006.24 1006.20 1006.15 1005.04 1005.11 1005.80 1006.87 1007.70 1008.56 1009.49 1010.66 1011.52 1012.28 1013.25 1013.79 1013.99 1014.33 1014.66 1014.81 1015.03 1015.24 1015.52 1015.91 1016.16 1016.27 1016.16 1016.01 1016.10 1016.41 1016.73 1017.33 1017.44 1017.85 1018.06 1018.21 1018.28 1018.37 1018.63
1000.04 1000.19 1000.66 1001.55 1003.18 1003.95 1004.06 1004.66 1003.12 1003.71 1003.21 1003.82 1004.30 1004.20 1003.67 1004.22 1005.13 1006.05 1006.97 1007.88 1008.85 1010.03 1010.98 1011.88 1012.77 1013.55 1013.86 1014.27 1014.49 1014.59 1014.69 1015.26 1015.64 1016.03 1016.47 1016.52 1016.30 1016.35 1016.24 1016.37 1016.82 1017.12 1017.38 1017.69 1017.93 1018.09 1018.22 1018.38 1018.45
1000.03 1000.62 1001.37 1002.01 1003.04 1003.73 1002.20 1001.91 1001.72 1001.06 1001.52 1001.90 1002.77 1002.52 1002.68 1003.26 1004.17 1005.18 1006.32 1007.20 1008.11 1009.23 1010.27 1011.26 1012.18 1013.13 1013.55 1013.96 1014.34 1014.59 1014.61 1014.91 1015.50 1015.76 1016.13 1016.45 1016.47 1016.46 1016.38 1016.46 1016.89 1017.20 1017.21 1017.38 1017.56 1018.05 1018.23 1018.34 1018.42
999.94 1000.50 1001.37 1002.34 1003.48 1003.17 1001.75 1001.03 1000.12 999.42 1000.77 1001.40 1000.80 1001.62 1001.83 1002.49 1003.17 1003.91 1004.79 1005.77 1006.92 1008.05 1009.31 1010.46 1011.47 1012.48 1013.13 1013.64 1014.03 1014.19 1014.50 1014.72 1015.15 1015.51 1015.46 1015.81 1015.99 1016.02 1016.15 1016.28 1016.41 1016.67 1016.92 1017.12 1017.39 1017.90 1018.16 1018.30 1018.40
999.49 1000.00 1000.34 1001.62 1002.52 1002.97 1001.68 1000.00 999.31 999.37 1000.39 1000.35 1000.88 1002.25 1001.61 1002.36 1002.70 1003.27 1003.76 1004.68 1005.84 1007.06 1008.26 1009.24 1010.64 1011.82 1012.44 1013.03 1013.60 1014.01 1014.30 1014.52 1014.89 1015.14 1015.13 1015.27 1015.52 1015.69 1015.89 1015.82 1016.27 1016.30 1016.60 1016.78 1017.24 1017.53 1017.79 1018.02 1018.21
999.04 999.48 1000.21 1000.82 1002.31 1002.82 1001.74 1001.07 1000.93 999.94 1000.34 1001.54 1001.39 1001.08 1000.13 1001.10 1001.71 1002.42 1002.79 1003.94 1004.88 1005.79 1007.37 1008.65 1009.80 1010.86 1011.77 1012.44 1013.09 1013.63 1014.06 1014.30 1014.58 1014.85 1014.94 1014.87 1015.20 1015.26 1015.67 1015.95 1016.06 1016.22 1016.45 1016.67 1016.97 1017.23 1017.40 1017.66 1017.75
998.85 999.16 999.85 1000.54 1001.93 1002.35 1001.97 1001.36 999.91 999.76 999.71 999.78 1001.05 999.99 1000.53 1000.80 1001.19 1001.29 1002.28 1003.22 1004.06 1005.22 1006.60 1007.84 1009.16 1010.14 1011.07 1011.78 1012.45 1013.11 1013.63 1014.09 1014.32 1014.71 1014.83 1014.73 1015.17 1015.41 1015.45 1015.75 1015.94 1016.08 1016.26 1016.52 1016.81 1017.01 1017.19 1017.43 1017.47
998.37 998.77 999.40 1000.28 1001.58 1001.91 1001.56 1000.64 998.46 998.27 999.90 1000.09 1000.60 1000.65 1001.69 1001.33 1000.83 1000.91 1001.05 1002.82 1004.17 1005.11 1006.04 1007.24 1008.65 1009.60 1010.26 1011.09 1011.83 1012.50 1013.02 1013.61 1014.01 1014.25 1014.57 1014.61 1014.71 1015.21 1015.31 1015.42 1015.70 1015.89 1016.04 1016.27 1016.49 1016.69 1016.80 1017.01 1017.15
Wind_Speed
9 9 4 1 1 3 3 4 3 16 16 20 18 16 15 12 5 8 13 17 18 14 9 9 12 13 14 14 14 14 14 14 13 13 13 14 13 13 12 13 12 13 13 13 13 13 13 14 13
10 9 2 1 1 3 2 2 16 16 16 22 22 19 17 14 13 19 15 18 17 13 9 8 12 13 14 14 14 13 14 14 14 13 12 14 13 12 12 11 11 11 10 11 11 11 12 14 13
3 8 1 1 4 4 5 14 14 10 16 16 10 12 8 15 11 7 16 18 17 14 12 11 13 13 13 12 14 13 13 13 13 12 13 13 12 12 12 11 10 9 8 9 10 10 11 12 12
3 2 1 2 6 7 11 14 12 19 18 18 17 14 14 15 8 12 19 18 17 15 13 12 14 14 14 13 12 13 12 11 12 11 11 11 11 10 9 9 7 8 8 9 8 10 10 12 10
1 0 0 2 4 5 14 12 16 14 16 18 17 14 9 16 21 19 18 17 17 13 10 9 14 13 13 13 12 12 10 10 10 9 8 8 8 7 7 6 5 5 6 7 9 9 12 12 10
3 1 1 2 12 8 12 16 15 21 21 19 22 17 12 12 18 17 19 19 17 15 10 10 13 13 13 13 11 11 9 10 9 7 7 6 7 7 6 6 5 5 6 7 7 6 10 11 10
5 3 4 10 9 11 16 15 14 14 19 12 16 17 9 10 9 11 18 18 18 14 11 7 7 10 13 11 10 9 8 8 6 5 5 4 5 5 4 3 3 5 6 6 5 7 8 10 11
6 2 8 5 5 6 8 6 9 9 15 21 22 7 12 11 11 15 16 18 17 14 12 10 7 6 6 6 9 7 6 5 4 3 2 3 5 6 7 6 4 2 5 8 6 7 9 12 12
10 5 3 6 7 2 10 11 2 3 17 15 9 19 13 14 12 13 12 10 12 12 12 10 8 7 7 6 7 7 7 5 3 1 4 4 3 5 5 4 4 5 5 7 10 9 10 12 13
3 3 7 7 12 11 9 10 9 8 11 18 21 17 15 16 9 13 11 7 7 15 12 11 9 7 8 7 6 5 5 3 3 3 4 3 3 3 3 6 12 11 8 5 7 9 7 7 2
5 5 11 15 24 12 10 8 7 9 4 20 24 20 16 15 8 12 12 8 6 15 10 11 8 9 8 5 4 2 2 3 1 5 6 7 7 6 2 3 3 4 6 3 1 1 2 2 3
2 7 12 15 12 7 9 15 5 8 4 23 22 19 17 15 11 10 13 10 9 8 10 10 9 7 4 4 4 4 3 3 3 4 5 5 7 10 2 4 3 3 1 1 3 2 4 5 5
5 5 4 12 17 12 9 18 12 11 9 20 21 18 16 13 13 9 12 12 8 8 10 10 8 7 5 4 4 2 4 3 4 5 8 5 4 8 3 4 1 3 2 3 5 4 5 3 6
11 7 9 21 15 10 13 5 20 7 11 20 20 15 14 11 12 10 12 10 8 11 14 10 7 6 6 4 5 4 4 4 5 3 3 8 5 6 9 7 4 2 4 4 4 4 8 5 4
4 6 15 23 11 10 17 6 11 14 13 18 17 14 13 10 11 10 11 11 10 12 12 9 9 7 6 7 5 4 9 7 5 5 5 5 3 1 4 9 7 6 6 4 2 6 0 2 1
5 3 5 11 22 9 5 4 14 8 13 18 15 13 13 9 11 10 12 11 10 13 11 9 9 8 6 3 3 2 4 4 5 4 5 6 2 0 2 4 4 5 3 5 4 5 3 4 3
7 6 5 3 9 10 14 10 20 8 3 9 16 14 12 9 9 10 12 13 10 14 11 9 10 7 7 4 3 3 4 4 4 4 4 3 5 6 4 4 4 5 4 4 3 3 3 3 1
6 9 1 6 3 16 16 8 23 19 5 5 17 14 13 13 12 13 14 14 13 14 10 7 10 8 6 4 3 3 4 4 4 4 4 5 4 5 5 5 6 5 5 4 4 5 4 4 2
14 10 12 13 15 16 15 16 21 17 11 2 12 15 12 14 14 14 14 15 16 14 10 7 12 8 4 2 1 1 1 3 6 5 7 6 4 4 5 4 6 4 5 3 4 3 4 5 4
16 13 8 7 21 8 12 15 11 11 6 3 9 15 16 14 16 15 14 16 18 16 12 8 12 9 5 3 2 1 3 2 4 4 5 6 5 4 7 6 5 6 4 5 4 4 2 2 3
16 11 10 9 16 7 12 12 9 4 3 4 20 14 18 19 18 17 17 17 17 16 13 10 11 11 7 6 1 1 4 5 3 3 3 3 4 4 7 6 5 5 5 4 3 3 4 2 3
13 17 14 7 15 6 14 6 6 11 16 20 22 17 18 20 18 16 16 17 18 16 14 9 11 9 8 6 3 5 7 6 3 4 3 3 3 4 6 6 7 6 4 5 3 2 1 2 2
17 17 9 18 9 7 10 8 6 9 15 25 30 25 22 20 20 21 19 18 16 17 15 13 10 8 7 5 5 4 3 4 4 4 7 4 3 3 6 7 6 6 4 4 5 3 3 2 3
17 16 13 8 5 3 13 14 6 9 17 22 27 29 24 21 21 21 19 19 17 17 16 15 13 11 8 7 5 5 6 3 5 6 5 4 3 2 5 6 6 6 6 5 3 3 3 3 2
15 8 4 4 3 6 11 5 11 22 20 6 6 23 23 23 22 21 21 18 17 21 18 16 16 14 10 8 6 6 6 5 7 6 6 6 4 3 5 5 6 5 6 6 5 4 2 1 1
12 9 6 6 3 8 9 6 8 15 19 9 20 17 23 24 22 25 26 23 21 23 21 19 18 15 13 8 7 7 4 3 4 6 5 5 6 5 6 6 6 7 7 6 6 4 3 3 2
20 13 10 6 8 2 5 8 9 11 12 11 18 6 17 18 22 25 26 24 23 21 23 21 20 16 16 11 8 7 5 5 4 6 4 5 4 8 7 7 7 7 7 7 7 4 5 5 4
9 6 7 3 8 6 7 3 6 5 2 12 20 24 22 24 21 22 23 23 22 21 22 21 21 20 17 14 11 8 7 6 5 3 5 4 4 7 7 7 7 7 7 7 6 4 5 6 4
15 11 6 6 3 6 3 7 13 8 3 6 5 8 7 0 7 20 22 22 23 20 20 21 21 20 17 17 13 11 10 7 6 5 5 6 5 6 10 7 7 7 7 7 6 6 6 7 6
20 13 10 7 10 3 6 7 3 15 17 6 7 15 5 7 8 7 19 22 21 21 18 20 19 19 17 17 14 14 12 10 8 7 7 6 6 6 7 8 7 7 7 7 7 7 6 7 7
Wind_Direction
160 177 209 163 149 253 243 148 86 82 69 73 68 76 78 35 73 136 124 124 124 120 124 118 111 111 107 109 108 107 106 101 104 105 105 104 106 110 111 107 106 102 103 100 99 99 97 93 95
182 180 187 200 199 208 189 135 87 91 89 92 84 82 64 73 87 120 124 125 124 129 114 110 117 114 113 113 112 111 110 105 105 102 108 109 112 113 117 116 109 104 103 101 104 101 99 100 100
187 167 108 124 265 174 148 106 100 111 103 103 77 76 72 122 112 93 128 130 122 113 114 126 122 116 116 111 109 106 105 106 109 113 113 115 117 122 120 121 119 111 114 113 110 109 109 105 102
208 67 37 233 237 148 110 108 125 100 99 102 110 77 83 97 89 127 124 119 111 114 117 124 122 121 115 117 109 112 109 113 115 118 119 121 122 122 122 116 120 115 111 112 118 114 111 104 109
282 216 284 251 285 123 108 115 93 97 86 93 96 113 100 98 127 133 124 117 116 115 118 118 121 123 121 121 117 114 122 122 117 117 123 125 124 123 118 124 127 114 110 113 117 116 120 113 118
97 13 80 235 222 115 118 108 97 88 100 103 100 111 108 128 140 141 133 124 121 124 121 121 124 126 126 125 121 124 135 128 127 138 142 150 151 153 149 154 150 144 136 131 120 127 130 125 133
95 18 323 323 113 120 120 120 111 119 125 120 116 116 143 147 157 124 134 122 125 130 122 128 126 137 129 134 135 137 144 130 144 157 166 182 183 181 163 154 153 146 145 136 138 137 142 141 143
108 107 331 316 56 80 76 78 131 126 134 132 139 136 159 156 130 110 125 129 129 134 140 141 144 142 138 144 152 162 148 151 144 188 199 238 245 218 185 166 175 136 134 133 135 138 140 143 149
164 125 136 326 339 347 120 122 132 86 131 155 191 138 138 130 127 110 109 125 131 140 142 146 163 162 154 160 176 183 174 168 174 300 246 256 258 257 230 179 144 89 63 122 130 141 150 155 159
127 156 166 132 294 268 127 132 129 149 128 110 118 126 137 130 141 123 119 131 143 145 152 156 166 161 163 170 166 184 181 149 157 128 347 223 260 37 62 57 60 57 75 99 153 142 157 152 154
151 216 134 187 202 251 302 151 179 95 91 138 137 142 141 142 148 138 142 161 156 155 154 154 159 158 176 143 164 156 165 169 13 61 32 59 82 36 36 31 26 350 39 10 115 110 166 257 181
182 243 172 162 170 151 309 298 81 154 138 137 139 147 143 157 152 163 154 153 160 155 157 132 140 148 127 156 149 178 156 188 161 112 127 179 101 157 47 230 180 22 112 175 274 224 197 221 245
202 175 157 121 137 120 85 322 330 113 126 136 138 152 154 162 167 158 152 157 165 148 116 135 133 127 147 99 95 144 161 160 171 137 138 139 133 139 160 272 346 117 182 185 198 226 233 171 220
175 113 76 69 37 34 110 236 347 122 137 139 143 157 165 167 176 146 147 156 144 118 127 134 125 137 155 141 171 188 100 157 189 135 228 157 155 153 179 197 221 203 214 213 223 167 207 197 168
256 101 81 62 51 45 357 23 311 315 171 147 149 164 175 175 170 150 142 148 139 132 131 124 133 140 127 167 163 186 139 159 160 151 116 71 128 359 81 182 194 199 218 215 181 243 264 323 144
292 107 110 91 112 64 359 340 234 164 290 143 158 171 182 178 161 149 138 147 137 134 138 137 142 143 172 176 207 225 145 189 142 140 126 127 105 70 109 95 106 128 162 197 173 173 217 233 195
277 196 84 55 73 112 93 311 289 299 276 177 159 178 180 171 159 147 144 145 135 141 148 158 140 163 172 193 258 270 146 149 144 138 126 111 88 66 124 102 97 89 81 51 37 40 113 158 78
268 80 63 141 127 115 114 274 282 283 263 260 167 181 186 171 166 154 147 149 132 147 155 149 152 158 172 184 247 280 113 115 128 127 129 117 96 90 103 90 93 94 83 49 33 38 17 71 37
267 279 131 125 146 116 167 184 247 264 272 71 205 182 191 176 160 157 157 147 142 150 151 161 144 160 146 168 198 172 123 130 123 128 124 120 115 65 111 130 115 113 98 78 39 22 57 34 23
266 259 125 130 170 102 198 227 195 234 267 304 306 197 188 175 164 165 157 150 154 157 161 160 152 148 174 179 198 187 131 157 136 133 115 101 93 61 81 108 117 119 100 77 58 43 28 44 27
268 261 146 156 178 62 178 282 256 194 107 293 270 236 190 178 170 171 164 157 159 161 166 158 160 160 173 202 149 347 76 110 82 84 103 115 134 127 110 107 99 125 108 101 88 58 71 102 358
264 266 169 170 163 189 184 268 200 178 184 201 234 246 189 180 169 172 165 164 162 165 164 150 160 166 195 177 190 192 148 144 191 145 150 168 174 165 130 114 91 109 123 106 113 109 96 131 170
253 268 272 162 170 162 205 246 247 205 183 215 211 229 194 181 173 173 169 167 163 164 167 157 155 172 209 182 219 208 162 158 142 140 146 167 210 202 134 129 121 117 110 126 117 101 77 89 132
248 264 280 179 202 265 211 206 201 190 227 193 207 198 182 177 176 172 174 167 163 167 167 165 155 180 195 189 219 230 179 142 132 139 151 174 181 183 151 125 134 140 138 136 136 127 108 109 102
252 247 279 334 38 235 274 283 185 192 191 190 232 187 180 176 173 171 175 174 164 169 171 169 166 176 190 186 193 216 221 157 143 172 160 173 172 189 176 145 146 148 148 152 149 151 151 138 147
251 223 197 188 216 246 264 249 218 193 151 195 211 218 177 175 177 176 178 178 175 170 173 172 173 174 183 184 189 207 192 169 150 193 180 179 183 185 176 162 158 167 158 159 164 165 184 178 202
252 256 222 225 206 244 261 273 45 141 132 121 129 197 173 162 194 184 180 176 177 168 174 173 174 178 180 185 171 205 185 180 197 210 208 161 179 182 174 170 173 172 167 167 177 188 192 185 206
217 227 258 257 209 231 284 44 316 44 88 174 180 197 163 180 188 190 179 177 178 171 172 172 173 178 180 182 181 187 197 189 201 235 228 227 160 157 162 178 181 178 173 181 186 201 204 190 210
245 243 239 175 196 192 216 269 183 187 250 307 340 116 131 118 212 196 180 180 177 174 168 172 174 178 179 185 181 183 197 194 189 213 230 245 166 189 173 183 186 189 187 190 193 208 213 202 216
227 235 201 179 254 257 142 274 211 131 243 40 69 105 92 58 40 73 177 173 173 176 168 174 173 178 181 183 185 189 184 197 195 201 221 230 216 171 194 178 190 194 194 195 200 213 196 206 218